COSMOS 2491 DEB, 45129

Orbit data source: Space-Track

COSMOS 2491 DEB, 45129 is space debris in LEO originally from a launch on Wed, 25 Dec 2013 UTC launched from the Plesetsk Missile And Space Complex (PKMTR). Debris objects in space refer to the collection of defunct objects orbiting the Earth. Examples of debris include non-operational satellites, rocket bodies, and fragments generated from explosions, collisions, or faulty payload assembly.

Loading next visibility...
COSMOS 2491 DEB details
Identifier
45129, 2013-076AB
Orbit
LEO
Last TLE update4 days ago
Origin
Flag of CISTsNIIKhM (CIS)
ManufacturerTsNIIKhM
MissionSpacecraft
Bus & MotorUnknown
MassUnknown
Launch date (UTC)
2013-12-25 (11 years ago)
Launch vehicleUnknown
Launch site
Plesetsk Missile And Space Complex (PKMTR)
Object type
Payload
Rocket body
Debris
Shape & HBRUnknown
Radar Cross SectionSmall (<0.1 m²)

Expand to show TLE details & history

TLE from 4 days ago
0 COSMOS 2491 DEB
1 45129U 13076AB  24337.16416435  .00007535  00000-0  38733-1 0  9992
2 45129  82.4609 120.2518 0156698 317.8024  41.1092 12.64866444 87884
Epoch: 2024-12-02T03:56Z
Definitive object data (Epoch: 2024-12-02T03:56:23.799Z)
Latitude-0.00006°
Longitude-10.33933°
Altitude1,314.612 km
Speed7.242 km/s
True Right ascension08h 01m 00s
True Declination0° 00' 00"
Sunlit
Object was in full shadow at TLE epoch
Visualization TLE readout
Latitude49.72683°
Longitude-4.18646°
Altitude1,434.285 km
Speed7.138 km/s
Apparent Right ascension03h 58m 07s
Apparent Declination76° 24' 55"
Sunlit
Object is in full shadow
Visualization observer readout
Local Sidereal Time08:45:02
Azimuth342.286° N
Elevation42.858°
Doppler factor1
Orbital elements
Apogee altitude1,522.129 km
Perigee altitude1,278.357 km
Semi-major axis7,778.38 km
Eccentricity0.0156698
Inclination82.4609°
RAAN120.2518°
Arg. of periapsis317.8024°
True anomaly42.3074°
Mean anomaly41.1092°
Eccentric anomaly41.70653°
Mean motion3.1638 °/min
BSTAR0.038733
Orbital period113.79 mins
Loading maneuver chart data...
Loading historical data...
Loading historical data...
Loading historical data...
Loading historical data...
Loading historical data...
Loading historical data...
Loading historical data...

COSMOS 2491 DEB Visibility forecast

Observer location: undefined°, undefined

Span
Click to sort rows by Start time (UTC) header in descending order
Start Az.
Max El. time (UTC)
Max El. Az.
Max El.
End time (UTC)
End Az.
5 mins2024-12-06 10:42:40.275Z342.154° N2024-12-06 10:42:40.275Z342.154° N34.277°2024-12-06 10:47:40.275Z1.263° NNE
15 mins2024-12-06 20:33:40.275Z3.96° NNE2024-12-06 20:40:40.275Z75.891° E39.567°2024-12-06 20:48:40.275Z152.739° SSE
13 mins2024-12-06 22:28:40.275Z329.624° NNW2024-12-06 22:34:40.275Z280.467° WNW28.194°2024-12-06 22:41:40.275Z220.99° SW
14 mins2024-12-07 09:19:40.275Z159.25° S2024-12-07 09:26:40.275Z78.01° E38.002°2024-12-07 09:33:40.275Z18.401° NNE
|